Chattanooga, TN

4:53 AM EDT on July 27, 2017 (GMT -0400)
Lovell

Weather History for KCHA - July, 2013

Change the Weather History Date:

Wednesday, July 24, 2013

  Actual Average Record
Temperature  
Mean Temperature 79 °F 80 °F  
Max Temperature 86 °F 90 °F 101 °F (1952)
Min Temperature 71 °F 70 °F 56 °F (1947)
Cooling Degree Days 14 15  
Month to date cooling degree days 325 356  
Year to date cooling degree days 900 897  
Since 1 June cooling degree days 724 701  
Growing Degree Days 28 (Base 50)    
Moisture  
Dew Point 70 °F    
Average Humidity 75    
Maximum Humidity 93    
Minimum Humidity 57    
Precipitation  
Precipitation 0.10 in 0.16 in 1.86 in (1890)
Month to date precipitation 7.78 3.85  
Year to date precipitation 46.92 30.72  
Snow  
Snow 0.00 in - - ()
Month to date snowfall 0.0  
Since 1 June snowfall 0.0  
Snow Depth 0.00 in    
Sea Level Pressure  
Sea Level Pressure 29.87 in    
Wind  
Wind Speed 3 mph (West)    
Max Wind Speed 17 mph    
Max Gust Speed 20 mph    
Visibility 10 miles    
Events Rain , Thunderstorm    
T = Trace of Precipitation, MM = Missing Value Source: NWS Daily Summary

Daily Weather History Graph

Daily Weather History Graph

Search for Another Location

Airport or City:

Trip Planner

Search our weather history database for the weather conditions in past years. The results will help you decide how hot, cold, wet, or windy it might be!

Date:

Astronomy

Jul. 24, 2013 Rise Set
Actual Time 6:44 AM EDT 8:49 PM EDT
Civil Twilight 6:16 AM EDT 9:18 PM EDT
Nautical Twilight 5:41 AM EDT 9:52 PM EDT
Astronomical Twilight 5:04 AM EDT 10:29 PM EDT
Moon 10:04 PM EDT (7/24) 8:56 AM EDT (7/24)
Length of Visible Light 15h 02m
Length of Day
14h 05m
Waning Gibbous, 95% of the Moon is Illuminated
Jul 24
Waning Gibbous
Jul 29
Last Quarter
Aug 6
New
Aug 14
First Quarter
Aug 20
Full

Hourly Weather History & Observations

Time (EDT) Temp. Heat Index Dew Point Humidity Pressure Visibility Wind Dir Wind Speed Gust Speed Precip Events Conditions
12:53 AM 75.0 °F - 72.0 °F 90% 29.88 in 10.0 mi South 3.5 mph - N/A   Mostly Cloudy
1:53 AM 75.0 °F - 71.1 °F 87% 29.87 in 10.0 mi SSE 3.5 mph - N/A   Mostly Cloudy
2:50 AM 75.2 °F - 69.8 °F 83% 29.88 in 10.0 mi West 3.5 mph - N/A   Scattered Clouds
2:53 AM 75.0 °F - 70.0 °F 84% 29.86 in 10.0 mi Calm Calm - N/A   Scattered Clouds
3:06 AM 75.2 °F - 69.8 °F 83% 29.88 in 10.0 mi Calm Calm - N/A   Mostly Cloudy
3:17 AM 75.2 °F - 69.8 °F 83% 29.87 in 10.0 mi Calm Calm - N/A   Overcast
3:53 AM 75.0 °F - 70.0 °F 84% 29.83 in 10.0 mi Calm Calm - N/A   Scattered Clouds
4:53 AM 73.9 °F - 69.1 °F 85% 29.83 in 10.0 mi WSW 4.6 mph - N/A   Clear
5:43 AM 73.4 °F - 69.8 °F 88% 29.86 in 10.0 mi Calm Calm - N/A   Scattered Clouds
5:53 AM 72.0 °F - 69.1 °F 91% 29.84 in 10.0 mi SSW 4.6 mph - N/A   Scattered Clouds
6:53 AM 72.0 °F - 69.1 °F 91% 29.86 in 10.0 mi Calm Calm - N/A   Mostly Cloudy
7:53 AM 73.9 °F - 70.0 °F 87% 29.86 in 10.0 mi Calm Calm - N/A   Mostly Cloudy
8:49 AM 75.2 °F - 69.8 °F 83% 29.90 in 10.0 mi Calm Calm - N/A   Mostly Cloudy
8:53 AM 75.9 °F - 70.0 °F 82% 29.87 in 10.0 mi Calm Calm - N/A   Mostly Cloudy
9:53 AM 77.0 °F - 70.0 °F 79% 29.89 in 10.0 mi West 4.6 mph - N/A   Mostly Cloudy
10:53 AM 78.1 °F - 70.0 °F 76% 29.89 in 10.0 mi West 4.6 mph - N/A   Overcast
11:08 AM 78.8 °F - 69.8 °F 74% 29.92 in 10.0 mi WNW 5.8 mph - N/A   Mostly Cloudy
11:53 AM 81.0 °F 84.4 °F 70.0 °F 69% 29.89 in 10.0 mi NNW 5.8 mph - N/A   Mostly Cloudy
12:53 PM 84.0 °F 88.4 °F 70.0 °F 63% 29.89 in 10.0 mi Calm Calm - N/A   Mostly Cloudy
1:53 PM 86.0 °F 90.7 °F 70.0 °F 59% 29.87 in 10.0 mi Variable 3.5 mph - N/A   Mostly Cloudy
2:53 PM 84.0 °F 87.0 °F 68.0 °F 58% 29.87 in 10.0 mi Calm Calm - N/A   Mostly Cloudy
3:15 PM 78.8 °F - 71.6 °F 78% 29.91 in 6.0 mi SW 11.5 mph - 0.00 in Rain , Thunderstorm Light Thunderstorms and Rain
3:38 PM 78.8 °F - 73.4 °F 83% 29.89 in 8.0 mi West 6.9 mph - 0.09 in Rain Light Rain
3:53 PM 78.1 °F - 73.0 °F 84% 29.86 in 10.0 mi WNW 3.5 mph - 0.09 in Rain Light Rain
4:53 PM 80.1 °F 84.2 °F 73.0 °F 79% 29.84 in 10.0 mi SW 3.5 mph - 0.00 in   Mostly Cloudy
5:53 PM 84.0 °F 88.4 °F 70.0 °F 63% 29.82 in 10.0 mi WNW 9.2 mph - N/A   Scattered Clouds
6:53 PM 84.9 °F 88.8 °F 69.1 °F 59% 29.83 in 10.0 mi WNW 6.9 mph - N/A   Scattered Clouds
7:28 PM 80.6 °F 83.9 °F 69.8 °F 70% 29.87 in 10.0 mi NNW 5.8 mph - N/A Thunderstorm Thunderstorm
7:47 PM 80.6 °F 84.6 °F 71.6 °F 74% 29.87 in 10.0 mi NW 4.6 mph - 0.01 in   Mostly Cloudy
7:53 PM 80.1 °F 83.2 °F 70.0 °F 71% 29.85 in 10.0 mi West 3.5 mph - 0.01 in   Mostly Cloudy
8:53 PM 78.1 °F - 66.9 °F 68% 29.86 in 10.0 mi NE 4.6 mph - N/A   Mostly Cloudy
9:53 PM 75.0 °F - 68.0 °F 79% 29.87 in 10.0 mi Calm Calm - N/A   Scattered Clouds
10:53 PM 73.0 °F - 68.0 °F 84% 29.88 in 10.0 mi Calm Calm - N/A   Partly Cloudy
11:53 PM 73.0 °F - 68.0 °F 84% 29.89 in 10.0 mi Calm Calm - N/A   Partly Cloudy